loading
|

OBJECT D, 61230

Orbit data source: Space-Track

OBJECT D, 61230 is a Chinese satellite in SSO that was launched on Tue, 24 Sep 2024 UTC via a JIELONG-3 launch vehicle from the Yellow Sea Launch Area, China (YSLA). Unknown objects in Earth's orbit typically refer to objects detected orbiting the Earth but have not yet been identified or cataloged. These objects could be anything from previously untracked satellites, spent rocket stages, debris from satellite collisions, or even natural meteoroids temporarily captured by Earth's gravity.

Loading next visibility...
Next conjunction unknown
Loading greatness...
OBJECT D details
Identifier
61230, 2024-173D
Orbit
SSO
Last TLE update9 hours ago
Origin
Flag of CNCN / PRC
ManufacturerUnknown
MissionOperational spacecraft
Bus & MotorUnknown bus, Unknown motor
MassUnknown
Launch date (UTC)
2024-09-24 (3 weeks ago)
Launch vehicle
JIELONG-3
Launch site
Yellow Sea Launch Area, China (YSLA)
Object typeUnknown
Shape & HBRUnknown
Radar Cross SectionMedium (>0.1 m² and <1 m²)

Expand to show TLE details & history

TLE from 9 hours ago
0 OBJECT D
1 61230U 24173D   24288.29283914  .00044750  00000-0  17343-2 0  9991
2 61230  97.4049   0.8904 0012050 203.8446 156.2235 15.25938474  3064
Epoch: 2024-10-14T07:01Z
Definitive object data (Epoch: 2024-10-14T07:01:41.301Z)
Latitude-0.0001°
Longitude-127.85374°
Altitude498.642 km
Speed7.611 km/s
True Right ascension00h 03m 33s
True Declination0° 00' 00"
Sunlit
Object was in full shadow at TLE epoch
Predictive object data (real-time)
Latitude-50.70919°
Longitude43.42404°
Altitude500.328 km
Speed7.617 km/s
Apparent Right ascension18h 33m 22s
Apparent Declination-81° 58' 51"
Sunlit
Object is in daylight
Predictive observer data (real-time)
Local Sidereal Time10:28:40
Azimuth170.499° S
Elevation-43.692°
Doppler factor1
Orbital elements
Apogee493.197 km
Perigee476.657 km
Semi-major axis6,863.064 km
Eccentricity0.001205
Inclination97.4049°
RAAN0.8904°
Arg. of periapsis203.8446°
True anomaly156.27909°
Mean anomaly156.2235°
Eccentric anomaly156.2513°
Mean motion3.81739 °/min
BSTAR0.0017343
Period94.31 mins
No data available

OBJECT D Visibility forecast

Observer location: 39.9160978°, -105.1181434

Span
Click to sort rows by Start time (UTC) header in descending order
Start Az.
Max El. time (UTC)
Max El. Az.
Max El.
End time (UTC)
End Az.
4 mins2024-10-14 17:03:23.625Z57.031° ENE2024-10-14 17:05:23.625Z97.095° ESE17.766°2024-10-14 17:07:23.625Z135.24° SSE
4 mins2024-10-14 18:37:23.625Z322.318° NNW2024-10-14 18:38:23.625Z298.853° NW21.457°2024-10-14 18:41:23.625Z237.495° WSW
5 mins2024-10-15 05:12:23.625Z181.688° SSW2024-10-15 05:14:23.625Z290.649° WNW42.366°2024-10-15 05:17:23.625Z342.326° N